CW9114 Weather Reports


Display with metric or nautical units.
time (UTC)temp
F
wind
direction
speed
MPH
gust
MPH
rain 1hr
in
rain 24hr
in
rain mn
in
humidity
%
barometer
mb
20260903033013 60 360 0.0 0.0 0.00 0.00 0.00 92 1014.0
20260903031516 61 360 0.0 0.0 0.00 0.00 0.00 92 1014.0
20260903030029 61 360 0.0 0.0 0.00 0.00 0.00 92 1014.0
20260903024528 61 360 0.0 0.0 0.00 0.00 0.00 92 1014.0
20260903023035 61 360 0.0 0.0 0.00 0.00 0.00 92 1013.9
20260903021514 61 360 0.0 1.0 0.00 0.00 0.00 92 1013.8
20260903020033 61 360 0.0 0.0 0.00 0.00 0.00 91 1013.7
20260903014527 62 360 0.0 0.0 0.00 0.00 0.00 91 1013.7
20260903013043 62 360 0.0 0.0 0.00 0.00 0.00 90 1013.7
20260903011533 63 360 0.0 0.0 0.00 0.00 0.00 90 1013.6
20260903010016 64 360 0.0 0.0 0.00 0.00 0.00 88 1013.5
20260903004525 64 360 0.0 0.0 0.00 0.00 0.00 87 1013.4
20260903003027 65 360 0.0 0.0 0.00 0.00 0.00 86 1013.4
20260903001535 66 360 0.0 0.0 0.00 0.00 0.00 84 1013.4
20260903000040 66 35 0.0 0.0 0.00 0.00 0.00 83 1013.4
20260902234517 67 35 0.0 0.0 0.00 0.00 0.00 82 1013.4
20260902233023 67 36 0.0 3.0 0.00 0.00 0.00 82 1013.3
20260902231532 68 31 0.0 5.0 0.00 0.00 0.00 81 1013.4
20260902230034 68 32 0.0 4.0 0.00 0.00 0.00 79 1013.4
20260902224515 69 196 0.0 5.0 0.00 0.00 0.00 78 1013.3
20260902223045 71 104 0.0 4.0 0.00 0.00 0.00 75 1013.2
20260902221531 73 167 0.0 6.0 0.00 0.00 0.00 70 1013.1
20260902220032 74 71 0.0 5.0 0.00 0.00 0.00 64 1013.0
20260902214534 75 56 1.0 3.0 0.00 0.00 0.00 61 1012.8
20260902213016 76 359 1.0 6.0 0.00 0.00 0.00 60 1012.8
20260902211526 76 276 1.0 3.0 0.00 0.00 0.00 58 1012.7
20260902210026 76 255 0.0 3.0 0.00 0.00 0.00 58 1012.6
20260902204544 77 335 1.0 3.0 0.00 0.00 0.00 57 1012.5
20260902203032 77 293 0.0 4.0 0.00 0.00 0.00 56 1012.5
20260902201518 78 34 1.0 5.0 0.00 0.00 0.00 55 1012.5
20260902200024 79 261 1.0 3.0 0.00 0.00 0.00 56 1012.7
20260902194531 79 359 1.0 4.0 0.00 0.00 0.00 58 1012.7
20260902193035 79 345 0.0 3.0 0.00 0.00 0.00 57 1012.7
20260902191534 80 214 0.0 3.0 0.00 0.00 0.00 57 1012.6
20260902190024 80 71 0.0 5.0 0.00 0.00 0.00 57 1012.5
20260902184533 81 27 0.0 6.0 0.00 0.00 0.00 54 1012.4
20260902183050 81 311 0.0 7.0 0.00 0.00 0.00 54 1012.4
20260902181510 82 205 0.0 2.0 0.00 0.00 0.00 53 1012.4
20260902180014 82 155 0.0 4.0 0.00 0.00 0.00 50 1012.4
20260902174518 83 1 2.0 6.0 0.00 0.00 0.00 47 1012.5
20260902173003 82 247 1.0 3.0 0.00 0.00 0.00 50 1012.6
20260902171510 82 85 1.0 4.0 0.00 0.00 0.00 50 1012.5
20260902170015 81 23 0.0 4.0 0.00 0.00 0.00 53 1012.7
20260902164522 81 274 0.0 3.0 0.00 0.00 0.00 55 1012.9
20260902163015 79 166 0.0 2.0 0.00 0.00 0.00 58 1012.9
20260902161507 78 37 0.0 3.0 0.00 0.00 0.00 60 1012.8
20260902160014 76 31 0.0 2.0 0.00 0.00 0.00 64 1012.8
20260902154513 75 29 0.0 3.0 0.00 0.00 0.00 62 1012.9
20260902153015 74 210 0.0 4.0 0.00 0.00 0.00 64 1013.2
20260902151516 73 255 0.0 1.0 0.00 0.00 0.00 69 1013.4
20260902150013 71 256 0.0 1.0 0.00 0.00 0.00 73 1013.0
20260902144511 70 256 0.0 2.0 0.00 0.00 0.00 76 1012.8
20260902143019 69 256 0.0 1.0 0.00 0.00 0.00 80 1012.9
20260902141518 68 360 0.0 1.0 0.00 0.00 0.00 80 1013.0
20260902140020 67 360 0.0 2.0 0.00 0.00 0.00 80 1012.9
20260902134509 67 360 0.0 1.0 0.00 0.00 0.00 81 1012.9
20260902133018 66 360 0.0 2.0 0.00 0.00 0.00 83 1012.8
20260902131520 65 360 0.0 0.0 0.00 0.00 0.00 85 1012.9
20260902130020 65 360 0.0 2.0 0.00 0.00 0.00 87 1013.1
20260902124521 64 360 0.0 1.0 0.00 0.00 0.00 86 1012.8
20260902123014 64 360 0.0 0.0 0.00 0.00 0.00 85 1013.4
20260902121519 65 360 0.0 0.0 0.00 0.00 0.00 84 1013.6
20260902120020 65 360 0.0 1.0 0.00 0.00 0.00 83 1013.4
20260902114519 65 360 0.0 2.0 0.00 0.00 0.00 83 1013.6
20260902113008 65 360 0.0 1.0 0.00 0.00 0.00 82 1013.5
20260902111515 65 360 0.0 3.0 0.00 0.00 0.00 81 1013.4
20260902110035 65 360 0.0 2.0 0.00 0.00 0.00 82 1013.0
20260902104537 66 360 0.0 0.0 0.00 0.00 0.00 81 1012.8
20260902103044 66 360 0.0 1.0 0.00 0.00 0.00 79 1012.8
20260902101511 66 360 0.0 2.0 0.00 0.00 0.00 80 1012.9
20260902100016 66 360 0.0 3.0 0.00 0.00 0.00 80 1012.8
20260902094524 66 360 0.0 2.0 0.00 0.00 0.00 79 1012.4
20260902093023 66 360 0.0 1.0 0.00 0.00 0.00 80 1012.2
20260902091525 66 360 0.0 2.0 0.00 0.00 0.00 78 1012.6
20260902090023 66 360 0.0 1.0 0.00 0.00 0.00 78 1012.4
20260902084533 66 360 0.0 2.0 0.00 0.00 0.00 79 1012.2
20260902083026 67 360 0.0 1.0 0.00 0.00 0.00 76 1012.1
20260902081531 67 360 0.0 1.0 0.00 0.00 0.00 74 1012.2
20260902080027 67 360 0.0 1.0 0.00 0.00 0.00 73 1011.9
20260902074517 67 360 0.0 1.0 0.00 0.00 0.00 72 1011.9
20260902073027 67 360 0.0 2.0 0.00 0.00 0.00 72 1012.0
20260902071530 67 360 0.0 1.0 0.00 0.00 0.00 71 1012.2
20260902070030 67 360 0.0 1.0 0.00 0.00 0.00 70 1012.3
20260902064529 67 360 0.0 1.0 0.00 0.00 0.00 70 1012.3
20260902063041 67 360 0.0 1.0 0.00 0.00 0.00 71 1012.0
20260902061503 67 360 0.0 1.0 0.00 0.00 0.00 69 1011.9
20260902060004 68 360 0.0 1.0 0.00 0.00 0.00 68 1012.2
20260902054513 68 360 0.0 1.0 0.00 0.00 0.00 67 1012.2
20260902053014 68 360 0.0 3.0 0.00 0.00 0.00 69 1012.2
20260902051525 68 360 0.0 1.0 0.00 0.00 0.00 69 1012.0
20260902050006 67 360 0.0 1.0 0.00 0.00 0.00 69 1012.0
20260902044508 68 360 0.0 3.0 0.00 0.00 0.00 69 1012.0
20260902043011 68 360 0.0 1.0 0.00 0.00 0.00 68 1012.0
20260902041519 67 360 0.0 3.0 0.00 0.00 0.00 69 1012.1
20260902040028 67 360 0.0 3.0 0.00 0.00 0.00 71 1012.2
20260902034508 67 360 0.0 2.0 0.00 0.00 0.00 73 1012.1